Showing default

IRIDIUM 149, 43250

Orbit data source: Space-Track

IRIDIUM 149, 43250 is a payload satellite owned by Iridium (US) in LEO that was launched on Fri, 30 Mar 2018 UTC via an FALCON 9 launch vehicle from the Air Force Western Test Range (AFWTR). Payload-class satellites include a variety of spacecraft equipped with specific instruments for various scientific and technological missions. These include communications satellites like Starlink; space stations such as the ISS; scientific satellites like the Hubble; Earth observation satellites from companies like Planet Labs, Umbra, and HawkEye 360; GPS; miniature CubeSats for education and research; and military/defense satellites.

Loading next visibility...
Identifier
43250, 2018-030B
Orbit
LEO
Country
Flag of USUS
Related business
Manufacturer
OATK SSG Gilbert
Mission
Operational Commercial Communications
Bus & Motor
ELITEBUS, Unknown motor
Mass
860 kg wet, 700 kg dry
Launch date (UTC)
2018-03-30 (8 years ago)
Launch vehicle
FALCON 9
Launch site
Air Force Western Test Range (AFWTR)
Object type
Payload
Rocket body
Debris
Shape & HBR
Trap Box + 2 Pan, 4.8 m
Radar Cross Section
10.154 m², Large (>1 m²)

Expand to show TLE details & history
Last TLE update: 15 hours ago

TLE from 15 hours ago
0 IRIDIUM 149
1 43250U 18030B   25302.65198392  .00000017  00000-0 -10847-5 0  9995
2 43250  86.4005  26.7376 0001921  96.0103 264.1312 14.34217702397113
Epoch: 2025-10-29T15:38Z
TLE epoch observation values (Epoch: 2025-10-29T15:38:51.410Z)
Latitude
-0.00001°
Longitude
113.80134°
Altitude
780.859 km
Speed
7.463 km/s
True Right ascension
01h 46m 57s
True Declination
0° 00' 00"
Sunlit
Object was in full shadow at epoch
Visualization orbit readout
Latitude
Unknown
Longitude
Unknown
Altitude
Unknown
Speed
Unknown
Apparent Right ascension
Unknown
Apparent Declination
Unknown
Sunlit
N/A
Visualization observer readout
Local Sidereal Time
02:28:09
Azimuth
Unknown
Elevation
Unknown
Doppler factor
Unknown
Orbital elements
Apogee altitude
776.006 km
Perigee altitude
773.258 km
Semi-major axis
7,152.769 km
Eccentricity
0.00019
Inclination
86.4005°
RAAN
26.7376°
Arg. of periapsis
96.0103°
True anomaly
264.1093°
Mean anomaly
264.1312°
Eccentric anomaly
264.12025°
Mean motion
3.58783 °/min
Orbital period
100.34 mins
BSTAR
-0.0000010847
Loading maneuver chart data...
Computing Atmospheric mass density...
Loading historical data...
Loading historical data...
Loading historical data...
Loading historical data...
Loading historical data...
Loading historical data...
Loading historical data...

Documentation

Showing up to 5 results
|